Starlink 1593

operational
NORAD ID: 46119 Int'l Des: 2020-057 Owner: SPXS Country: US Constellation: starlink
LEOCIRCULARSTARLINK_TYPE

Starlink 1593について

説明を読み込み中...

リアルタイム位置

3D地球を読み込み中...

次回通過

高度履歴

Altitude vs Time

uPlot chart will show altitude changes over time

軌道要素

1 46119U 20057C 25353.66670139 .00116376 00000-0 20935-2 0 9996
2 46119 53.0543 300.5491 0009935 76.1339 177.5011 15.48930369 5915
Epoch: Dec 19, 2025 • Age: 6 hours

現在のステータス

高度 432.6 km
速度 7.65 km/s
衛星直下点 -31.69°S, 154.18°W
打ち上げ日 Aug 18, 2020
運用期間 5.3 years
タイプ internet

技術仕様

分類 Payload
質量 260.00 kg
乾燥質量 248.00 kg
総質量 260.00 kg
長さ 0.20 m
直径 2.80 m
スパン 9.00 m
形状 Box + pan
製造者 SPXS
バスタイプ Starlink
フェーズステータス In Orbit
所有者/国 SPXS/US

大規模コンステレーション

Loading constellations...